Location: Gro�sch�nbrunn
(49.5760°N, 11.8868°E)
Time: 03:19:44
(UTC+00:00)

Meteor 2-9 Rocket - Pass Details

Date: 18 September 2020
Orbit: 791 x 896 km, 81.3° (Epoch: 18 October)

Event Time Altitude Azimuth Distance (km) Brightness Sun altitude
Rises 17:51:10 0° 179° (S) 3,498 7.3 -6.1°
Reaches altitude 10° 17:53:39 10° 176° (S) 2,560 6.6 -6.5°
Maximum altitude 17:59:25 63° 97° (E) 987 4.3 -7.4°
Drops below altitude 10° 18:05:08 10° 17° (NNE) 2,542 6.6 -8.3°
Sets 18:07:35 0° 15° (NNE) 3,471 7.4 -8.7°
